Skip Page Navigation
NASA JPL Caltech
NASA Logo - Jet Propulsion Laboratory + View the NASA Portal
+ Near-Earth Object (NEO) Program
Search JPL
JPL Home Earth Solar System Stars & Galaxies Technology
JPL Solar System Dynamics
BODIES ORBITS EPHEMERIDES TOOLS PHYSICAL DATA DISCOVERY FAQ SITE MAP
JPL Small-Body Database Browser
Search: [ help ]  
59241 (1999 CC4)
Classification: Main-belt Asteroid          SPK-ID: 2059241
Ephemeris | Orbit Diagram | Orbital Elements | Physical Parameters | Discovery Circumstances | Close-Approach Data ]

[ show orbit diagram ]
Orbital Elements at Epoch 2457600.5 (2016-Jul-31.0) TDB
Reference: JPL 11 (heliocentric ecliptic J2000)
 Element Value Uncertainty (1-sigma)   Units 
e .1136408223358496 4.8077e-08  
a 2.303385742475949 1.0489e-08 au
q 2.041627092544311 1.1319e-07 au
i 5.52295834381777 5.0509e-06 deg
node 138.8478484145637 5.3242e-05 deg
peri 343.7905872074069 6.2464e-05 deg
M 9.680823461467025 2.9274e-05 deg
tp 2457566.163324987569
(2016-Jun-26.66332499)
0.00010382 JED
period 1276.875159812293
3.50
8.7216e-06
2.388e-08
d
yr
n .2819382907040982 1.9258e-09 deg/d
Q 2.565144392407587 1.1681e-08 au
  Orbit Determination Parameters
   # obs. used (total)      989  
   data-arc span      6307 days (17.27 yr)  
   first obs. used      1998-11-26  
   last obs. used      2016-03-03  
   planetary ephem.      DE431  
   SB-pert. ephem.      SB431-BIG16  
   condition code      0  
   fit RMS      .53084  
   data source      ORB  
   producer      Otto Matic  
   solution date      2016-Mar-24 18:08:00  

Additional Information
 Earth MOID = 1.05641 au 
 Jupiter MOID = 2.49136 au 
 T_jup = 3.575 
[ show covariance matrix ]

Ephemeris | Orbit Diagram | Orbital Elements | Physical Parameters | Discovery Circumstances | Close-Approach Data ]

Physical Parameter Table
Parameter Symbol Value Units Sigma Reference Notes
absolute magnitude H 15.0 mag n/a MPO359148  

59241 (1999 CC4)          Discovered 1999-Feb-06 by Beijing Schmidt CCD Asteroid Program at Xinglong
Reference: 20030614/Numbers.arcLast Updated: 2004-04-19

[ show close-approach data ]
Alternate Designations
 1999 CC4 = 2001 QX263 
Ephemeris | Orbit Diagram | Orbital Elements | Physical Parameters | Discovery Circumstances | Close-Approach Data ]
ABOUT SSD CREDITS/AWARDS PRIVACY/COPYRIGHT GLOSSARY LINKS
FirstGov 2016-Apr-30 13:06 UT
(server date/time)  
NASA Home Page
Site Manager:   Ryan S. Park
Webmaster  Alan B. Chamberlin